AirNav   ATP
 
 881 users online  

7FL3 Adams Ranch Airport
Fort Pierce, Florida, USA

GOING TO FORT PIERCE?


FAA INFORMATION EFFECTIVE 14 SEPTEMBER 2017

Location

FAA Identifier: 7FL3
Lat/Long: 27-26-31.1420N / 080-35-03.2010W
27-26.519033N / 080-35.053350W
27.4419839 / -80.5842225
(estimated)
Elevation: 25 ft. / 8 m (estimated)
Variation: 03W (1985)
From city: 14 miles W of FORT PIERCE, FL
Time zone: UTC -4 (UTC -5 during Standard Time)
Zip code: 34945

Airport Operations

Airport use: Private use. Permission required prior to landing
Activation date: 08/1991
Control tower: no
ARTCC: MIAMI CENTER
FSS: MIAMI FLIGHT SERVICE STATION
Attendance: UNATNDD
Wind indicator: yes
Segmented circle: no

Airport Communications

WX ASOS at FPR (12 nm E): PHONE 772-489-4281
WX ASOS at VRB (16 nm NE): PHONE 772-978-9535
WX AWOS-3 at OBE (18 nm SW): 118.675 (863-467-1148)

Nearby radio navigation aids

VOR radial/distance  VOR name  Freq  Var
TRVr207/15.0TREASURE VORTAC117.3007W
MLBr183/39.9MELBOURNE VOR/DME110.0007W
PHKr008/40.0PAHOKEE VOR/DME115.4000E

 
NDB name  Hdg/Dist  Freq  Var  ID
FORT PIERCE264/11.527507WFPR ..-. .--. .-.
UNITED340/34.640503WUTX ..- - -..-
SATELLITE177/39.925706WSQT ... --.- -

Airport Services

Runway Information

Runway 8/26

Dimensions: 2625 x 135 ft. / 800 x 41 m
Surface: turf, in good condition
Runway edge markings: 08/26 THRS ARE MKD WITH THR MARKERS; EDGES NOT MKD.
RUNWAY 8  RUNWAY 26
Traffic pattern: leftleft
Displaced threshold: 200 ft.150 ft.

Airport Ownership and Management from official FAA records

Ownership: Privately-owned
Owner: ADAMS RANCH INC.
PO BOX 12909
FT PIERCE, FL 34979-2909
Phone 407-461-6321
Manager: MICHAEL ADAMS
PO BOX 12909
FT PIERCE, FL 34979-2909
Phone 407-461-6321

Airport Operational Statistics

Aircraft based on the field: 4
Single engine airplanes: 3
Ultralights: 1
    

Additional Remarks

ULTRALIGHT ACTIVITY ON AND INVOF ARPT.

Instrument Procedures

There are no published instrument procedures at 7FL3.

Some nearby airports with instrument procedures:

KFPR - Treasure Coast International Airport (12 nm E)
KVRB - Vero Beach Municipal Airport (16 nm NE)
KOBE - Okeechobee County Airport (18 nm SW)
X26 - Sebastian Municipal Airport (23 nm N)
KSUA - Witham Field Airport (25 nm SE)
 
Loc | Ops | Rwys | IFR | FBO | Links
Com | Nav | Svcs | Stats | Notes


 
Area around 7FL3 (Adams Ranch Airport)
 
Road maps at: MapQuest Bing Google
 
Aerial photo
No photo
 
Sectional chart

 
Airport distance calculator
Flying to Adams Ranch Airport? Find the distance to fly.

From to 7FL3

Sunrise and sunset
Times for 24-Sep-2017
 Local
(UTC-4)
 Zulu
(UTC)
Morning civil twilight06:4910:49
Sunrise07:1311:13
Sunset19:1623:16
Evening civil twilight19:3923:39

Current date and time
Zulu (UTC)  25-Sep-2017 00:12:52
Local (UTC-4)  24-Sep-2017 20:12:52
 
METAR
KFPR 
11nm E 
242353Z 04004KT 10SM CLR 27/23 A2986 RMK AO2 SLP112 T02720233 10306 20272 53005
KVRB 
15nm NE 
242353Z AUTO 02006KT 10SM FEW026 27/22 A2987 RMK AO2 SLP113 T02720222 10311 20272 53006
KOBE 
18nm SW 
242355Z AUTO 05004KT 10SM SCT120 26/22 A2987 RMK AO2 LTG DSNT W
TAF
KFPR 
11nm E 
241720Z 2418/2518 04011KT P6SM VCSH SCT020 BKN050 BKN250 FM242000 03012KT P6SM SCT025 SCT050 BKN250 FM250100 03007KT P6SM SCT025 SCT250 FM251300 34006KT P6SM SCT030 SCT250
KVRB 
15nm NE 
241957Z 2420/2518 03011G17KT P6SM FEW030 SCT045 FM250100 03007KT P6SM SCT025 SCT250 FM251300 34006KT P6SM SCT030 SCT250
NOTAMs
Click for the latest NOTAMs
NOTAMs are issued by the DoD/FAA and will open in a separate window not controlled by AirNav.

 

 
 

Would you like to see your business listed on this page?

 If your business provides an interesting product or service to pilots, flight crews, aircraft, or users of the Adams Ranch Airport, you should consider listing it here.  To start the listing process, click on the button below
 
Add a business
 

Other Pages about Adams Ranch Airport

Update a link
 
Copyright © AirNav, LLC. All rights reserved. Privacy Policy  Contact